Regional Weather Roundup
Issued by NWS Little Rock, AR

Home | Current Version | Previous Version | Text Only | Print | Product List | Glossary Off
Versions: 1 2 3 4 5 6 7 8 9 10 11 12 13 14 15 16 17 18 19 20 21 22 23 24 25 26 27 28 29 30 31 32 33 34 35 36 37 38 39 40 41 42 43 44 45 46 47 48 49 50

889
ASUS44 KLZK 102105
RWRLZK

WEATHER ROUNDUP FOR ARKANSAS
NATIONAL WEATHER SERVICE LITTLE ROCK AR
300 PM CST WED FEB 10 2016

NOTE: "FAIR" INDICATES FEW OR NO CLOUDS BELOW 12,000 FEET WITH NO
SIGNIFICANT WEATHER AND/OR OBSTRUCTIONS TO VISIBILITY.

ARZ001-003-010-029-102200-
NORTHWEST ARKANSAS

CITY           SKY/WX    TMP DP  RH WIND       PRES   REMARKS
FAYETTEVILLE   SUNNY     51  22  31 SW18G24   30.02F
FORT SMITH     SUNNY     60  19  20 W13G21    30.07F
HARRISON       SUNNY     54  22  28 W12       30.00F
BENTONVILLE    SUNNY    N/A N/A N/A SW12      30.02F
ROGERS         SUNNY     50  22  33 SW16G25   30.01F
SILOAM SPGS    SUNNY     52  21  30 SW16      30.02F
$$

ARZ004-005-016-102200-
NORTH CENTRAL ARKANSAS

CITY           SKY/WX    TMP DP  RH WIND       PRES   REMARKS
BATESVILLE     SUNNY     46  16  29 SW13      30.11F
FLIPPIN        SUNNY     48  16  27 S6        30.01F
MTN HOME       SUNNY     46  15  28 S12       30.03F
$$

ARZ040-041-102200-
WEST CENTRAL ARKANSAS

CITY           SKY/WX    TMP DP  RH WIND       PRES   REMARKS
MENA           SUNNY     59  25  27 SW10      30.10F
MOUNT IDA      SUNNY     57  21  24 SW10G17   30.08F
$$

ARZ009-017-025-026-028-102200-
NORTHEAST ARKANSAS

CITY           SKY/WX    TMP DP  RH WIND       PRES   REMARKS
CORNING        FAIR      37  10  32 S6        30.15S
JONESBORO      SUNNY     36  11  35 S10       30.14F
NEWPORT        SUNNY     44  14  29 S13       30.13F
WALNUT RIDGE   SUNNY     39  10  30 SW9       30.12F
BLYTHEVILLE    SUNNY     39  10  30 SW10      30.16F
$$

ARZ022-023-033-042-044-102200-
CENTRAL ARKANSAS

CITY           SKY/WX    TMP DP  RH WIND       PRES   REMARKS
LITTLE ROCK    SUNNY     52  18  26 W15       30.13F
N LITTLE ROCK  SUNNY     50  21  31 S13G21    30.13F
JACKSONVILLE   SUNNY     50  17  27 SW8       30.11F
SEARCY         SUNNY     47  17  30 SW6       30.15F
HOT SPRINGS    SUNNY     55  21  26 SW16G22   30.12F
RUSSELLVILLE   SUNNY     53  19  26 VRB6      30.08F
CLINTON        FAIR      46  18  31 S8        30.10F
$$

ARZ036-102200-
EAST ARKANSAS

CITY           SKY/WX    TMP DP  RH WIND       PRES   REMARKS
WEST MEMPHIS   SUNNY     41  15  35 VRB6      30.15F
$$

ARZ050-053-066-070-073-102200-
SOUTHWEST ARKANSAS

CITY           SKY/WX    TMP DP  RH WIND       PRES   REMARKS
ARKADELPHIA    FAIR      56  25  30 SW14      30.16F
CAMDEN         SUNNY     57  18  21 SW7       30.17F
TEXARKANA      SUNNY     59  25  27 SW12      30.16F
EL DORADO      SUNNY     58  23  26 SW12G18   30.18F
DE QUEEN       SUNNY     59  29  31 SW12      30.14F
$$

ARZ056-057-069-102200-
SOUTHEAST ARKANSAS

CITY           SKY/WX    TMP DP  RH WIND       PRES   REMARKS
PINE BLUFF     SUNNY     52  19  27 SW12      30.16F
STUTTGART      SUNNY     46  18  31 S7        30.17F
MONTICELLO     SUNNY     53  19  26 SW12G21   30.17F

$$






USA.gov is the U.S. government's official web portal to all federal, state and local government web resources and services.